| time (UTC) | temp F | wind direction | speed MPH | gust MPH | rain 1hr in | rain 24hr in | rain mn in | humidity % | barometer mb |
| 20260904223026 | 91 | 360 | 3.0 | 4.0 | 0.00 | 0.00 | 0.00 | 64 | 1011.7 |
| 20260904221515 | 90 | 360 | 2.0 | 5.0 | 0.00 | 0.00 | 0.00 | 66 | 1011.9 |
| 20260904220018 | 91 | 360 | 1.0 | 4.0 | 0.00 | 0.00 | 0.00 | 64 | 1011.9 |
| 20260904214543 | 90 | 360 | 0.0 | 3.0 | 0.00 | 0.00 | 0.00 | 71 | 1011.8 |
| 20260904213010 | 88 | 360 | 1.0 | 3.0 | 0.00 | 0.00 | 0.00 | 72 | 1012.1 |
| 20260904211514 | 87 | 360 | 0.0 | 4.0 | 0.00 | 0.00 | 0.00 | 74 | 1012.2 |
| 20260904210022 | 86 | 360 | 1.0 | 5.0 | 0.00 | 0.00 | 0.00 | 74 | 1012.5 |
| 20260904204547 | 87 | 360 | 2.0 | 5.0 | 0.00 | 0.00 | 0.00 | 72 | 1012.6 |
| 20260904203034 | 88 | 360 | 1.0 | 5.0 | 0.00 | 0.00 | 0.00 | 71 | 1012.6 |
| 20260904201517 | 90 | 360 | 2.0 | 6.0 | 0.00 | 0.00 | 0.00 | 67 | 1012.7 |
| 20260904200024 | 92 | 360 | 1.0 | 4.0 | 0.00 | 0.00 | 0.00 | 65 | 1012.8 |
| 20260904194528 | 91 | 360 | 1.0 | 5.0 | 0.00 | 0.00 | 0.00 | 64 | 1012.8 |
| 20260904193016 | 91 | 360 | 1.0 | 3.0 | 0.00 | 0.00 | 0.00 | 67 | 1013.0 |
| 20260904191518 | 91 | 360 | 2.0 | 4.0 | 0.00 | 0.00 | 0.00 | 63 | 1013.1 |
| 20260904190010 | 89 | 360 | 2.0 | 6.0 | 0.00 | 0.00 | 0.00 | 65 | 1013.3 |
| 20260904184516 | 91 | 360 | 1.0 | 2.0 | 0.00 | 0.00 | 0.00 | 66 | 1013.8 |
| 20260904183039 | 92 | 360 | 2.0 | 9.0 | 0.00 | 0.00 | 0.00 | 65 | 1014.0 |
| 20260904181521 | 91 | 360 | 2.0 | 4.0 | 0.00 | 0.00 | 0.00 | 66 | 1014.4 |
| 20260904180019 | 90 | 360 | 1.0 | 6.0 | 0.00 | 0.00 | 0.00 | 72 | 1014.4 |
| 20260904174528 | 89 | 360 | 2.0 | 8.0 | 0.00 | 0.00 | 0.00 | 73 | 1014.5 |
| 20260904173033 | 86 | 360 | 0.0 | 2.0 | 0.00 | 0.00 | 0.00 | 80 | 1014.7 |
| 20260904171520 | 84 | 355 | 2.0 | 3.0 | 0.00 | 0.00 | 0.00 | 82 | 1014.7 |
| 20260904170021 | 82 | 360 | 0.0 | 3.0 | 0.00 | 0.00 | 0.00 | 83 | 1014.8 |
| 20260904164528 | 83 | 360 | 0.0 | 3.0 | 0.00 | 0.00 | 0.00 | 83 | 1014.9 |
| 20260904163009 | 83 | 360 | 1.0 | 4.0 | 0.00 | 0.00 | 0.00 | 85 | 1014.9 |
| 20260904161514 | 84 | 360 | 0.0 | 3.0 | 0.00 | 0.00 | 0.00 | 85 | 1014.8 |
| 20260904160020 | 84 | 360 | 0.0 | 5.0 | 0.00 | 0.00 | 0.00 | 85 | 1014.7 |
| 20260904154543 | 84 | 360 | 0.0 | 3.0 | 0.00 | 0.00 | 0.00 | 88 | 1014.7 |
| 20260904153010 | 84 | 360 | 0.0 | 0.0 | 0.00 | 0.00 | 0.00 | 87 | 1014.6 |
| 20260904151512 | 84 | 360 | 0.0 | 0.0 | 0.00 | 0.00 | 0.00 | 88 | 1014.3 |
| 20260904150019 | 83 | 360 | 2.0 | 4.0 | 0.00 | 0.00 | 0.00 | 88 | 1014.3 |
| 20260904144524 | 82 | 360 | 0.0 | 2.0 | 0.00 | 0.00 | 0.00 | 93 | 1014.2 |
| 20260904143010 | 81 | 360 | 2.0 | 4.0 | 0.00 | 0.00 | 0.00 | 93 | 1014.2 |
| 20260904141515 | 81 | 360 | 0.0 | 3.0 | 0.00 | 0.00 | 0.00 | 93 | 1014.1 |
| 20260904140044 | 80 | 360 | 1.0 | 2.0 | 0.00 | 0.00 | 0.00 | 93 | 1014.0 |
| 20260904134525 | 80 | 360 | 0.0 | 0.0 | 0.00 | 0.00 | 0.00 | 93 | 1013.9 |
| 20260904133014 | 80 | 360 | 0.0 | 0.0 | 0.00 | 0.00 | 0.00 | 93 | 1013.9 |
| 20260904131516 | 80 | 360 | 0.0 | 0.0 | 0.00 | 0.00 | 0.00 | 93 | 1013.7 |
| 20260904130018 | 79 | 360 | 0.0 | 0.0 | 0.00 | 0.00 | 0.00 | 93 | 1013.8 |
| 20260904124524 | 79 | 360 | 0.0 | 0.0 | 0.00 | 0.00 | 0.00 | 93 | 1013.5 |
| 20260904123026 | 79 | 360 | 0.0 | 0.0 | 0.00 | 0.00 | 0.00 | 93 | 1013.3 |
| 20260904121515 | 78 | 360 | 0.0 | 0.0 | 0.00 | 0.00 | 0.00 | 92 | 1013.1 |
| 20260904120017 | 78 | 360 | 0.0 | 0.0 | 0.00 | 0.00 | 0.00 | 92 | 1013.0 |
| 20260904114524 | 79 | 360 | 0.0 | 0.0 | 0.00 | 0.00 | 0.00 | 92 | 1012.9 |
| 20260904113027 | 79 | 360 | 0.0 | 0.0 | 0.00 | 0.00 | 0.00 | 92 | 1012.9 |
| 20260904111516 | 79 | 360 | 0.0 | 0.0 | 0.00 | 0.00 | 0.00 | 92 | 1012.9 |
| 20260904110017 | 79 | 360 | 0.0 | 2.0 | 0.00 | 0.00 | 0.00 | 92 | 1012.8 |
| 20260904104525 | 79 | 360 | 0.0 | 0.0 | 0.00 | 0.00 | 0.00 | 92 | 1012.9 |
| 20260904103028 | 79 | 360 | 0.0 | 0.0 | 0.00 | 0.00 | 0.00 | 92 | 1012.9 |
| 20260904101517 | 79 | 360 | 0.0 | 0.0 | 0.00 | 0.00 | 0.00 | 92 | 1012.6 |
| 20260904100018 | 79 | 360 | 0.0 | 0.0 | 0.00 | 0.00 | 0.00 | 92 | 1012.5 |
| 20260904094526 | 79 | 360 | 0.0 | 0.0 | 0.00 | 0.00 | 0.00 | 92 | 1012.5 |
| 20260904093050 | 79 | 360 | 0.0 | 0.0 | 0.00 | 0.00 | 0.00 | 92 | 1012.2 |
| 20260904091517 | 79 | 360 | 0.0 | 0.0 | 0.00 | 0.00 | 0.00 | 92 | 1012.2 |
| 20260904090020 | 79 | 360 | 0.0 | 0.0 | 0.00 | 0.00 | 0.00 | 92 | 1012.2 |
| 20260904084524 | 79 | 360 | 0.0 | 0.0 | 0.00 | 0.00 | 0.00 | 92 | 1012.3 |
| 20260904083029 | 79 | 360 | 0.0 | 0.0 | 0.00 | 0.00 | 0.00 | 92 | 1012.4 |
| 20260904081514 | 79 | 360 | 0.0 | 0.0 | 0.00 | 0.00 | 0.00 | 92 | 1012.5 |
| 20260904080044 | 79 | 360 | 0.0 | 0.0 | 0.00 | 0.00 | 0.00 | 92 | 1012.5 |
| 20260904074528 | 79 | 360 | 0.0 | 0.0 | 0.00 | 0.00 | 0.00 | 92 | 1012.5 |
| 20260904073015 | 79 | 360 | 0.0 | 0.0 | 0.00 | 0.00 | 0.00 | 92 | 1012.5 |
| 20260904071538 | 79 | 360 | 0.0 | 0.0 | 0.00 | 0.00 | 0.00 | 92 | 1012.4 |
| 20260904070026 | 79 | 360 | 0.0 | 0.0 | 0.00 | 0.00 | 0.00 | 92 | 1012.4 |
| 20260904064511 | 79 | 360 | 0.0 | 0.0 | 0.00 | 0.00 | 0.00 | 92 | 1012.5 |
| 20260904063018 | 79 | 360 | 0.0 | 0.0 | 0.00 | 0.00 | 0.00 | 91 | 1012.5 |
| 20260904061523 | 80 | 360 | 0.0 | 2.0 | 0.00 | 0.00 | 0.00 | 91 | 1012.5 |
| 20260904060012 | 79 | 360 | 0.0 | 0.0 | 0.00 | 0.00 | 0.00 | 91 | 1012.5 |
| 20260904054516 | 79 | 360 | 0.0 | 0.0 | 0.00 | 0.00 | 0.00 | 91 | 1012.5 |
| 20260904053023 | 79 | 360 | 0.0 | 0.0 | 0.00 | 0.00 | 0.00 | 91 | 1012.4 |
| 20260904051525 | 79 | 360 | 0.0 | 0.0 | 0.00 | 0.00 | 0.00 | 91 | 1012.6 |
| 20260904050014 | 80 | 360 | 0.0 | 0.0 | 0.00 | 0.00 | 0.00 | 91 | 1012.6 |
| 20260904044518 | 80 | 360 | 0.0 | 0.0 | 0.00 | 0.00 | 0.00 | 91 | 1012.6 |
| 20260904043022 | 80 | 360 | 0.0 | 2.0 | 0.00 | 0.00 | 0.00 | 91 | 1012.7 |
| 20260904041527 | 80 | 360 | 0.0 | 0.0 | 0.00 | 0.00 | 0.00 | 91 | 1012.7 |
| 20260904040015 | 80 | 360 | 0.0 | 3.0 | 0.00 | 0.00 | 0.00 | 91 | 1012.7 |
| 20260904034520 | 80 | 360 | 0.0 | 0.0 | 0.00 | 0.00 | 0.00 | 91 | 1012.6 |
| 20260904033024 | 80 | 360 | 0.0 | 3.0 | 0.00 | 0.00 | 0.00 | 91 | 1012.6 |
| 20260904031513 | 80 | 360 | 0.0 | 4.0 | 0.00 | 0.00 | 0.00 | 91 | 1012.6 |
| 20260904030017 | 80 | 360 | 1.0 | 5.0 | 0.00 | 0.00 | 0.00 | 91 | 1012.6 |
| 20260904024523 | 80 | 360 | 1.0 | 3.0 | 0.00 | 0.00 | 0.00 | 91 | 1012.5 |
| 20260904023047 | 80 | 360 | 0.0 | 2.0 | 0.00 | 0.00 | 0.00 | 91 | 1012.5 |
| 20260904021515 | 80 | 360 | 0.0 | 1.0 | 0.00 | 0.00 | 0.00 | 91 | 1012.4 |
| 20260904020020 | 80 | 360 | 0.0 | 0.0 | 0.00 | 0.00 | 0.00 | 90 | 1012.3 |
| 20260904014528 | 80 | 360 | 0.0 | 0.0 | 0.00 | 0.00 | 0.00 | 90 | 1012.1 |
| 20260904013028 | 80 | 360 | 0.0 | 0.0 | 0.00 | 0.00 | 0.00 | 90 | 1011.9 |
| 20260904011517 | 80 | 360 | 0.0 | 0.0 | 0.00 | 0.00 | 0.00 | 89 | 1011.8 |
| 20260904010019 | 81 | 360 | 0.0 | 0.0 | 0.00 | 0.00 | 0.00 | 89 | 1011.8 |
| 20260904004526 | 81 | 360 | 0.0 | 0.0 | 0.00 | 0.00 | 0.00 | 89 | 1011.8 |
| 20260904003029 | 81 | 360 | 0.0 | 0.0 | 0.00 | 0.00 | 0.00 | 89 | 1011.9 |
| 20260904001517 | 82 | 360 | 0.0 | 0.0 | 0.00 | 0.00 | 0.00 | 88 | 1012.0 |
| 20260904000041 | 82 | 360 | 0.0 | 0.0 | 0.00 | 0.00 | 0.00 | 88 | 1012.0 |
| 20260903234524 | 82 | 360 | 0.0 | 0.0 | 0.00 | 0.00 | 0.00 | 89 | 1012.0 |
| 20260903233031 | 82 | 360 | 0.0 | 0.0 | 0.00 | 0.00 | 0.00 | 89 | 1012.0 |
| 20260903231515 | 82 | 360 | 0.0 | 0.0 | 0.00 | 0.00 | 0.00 | 89 | 1011.7 |
| 20260903230021 | 82 | 360 | 0.0 | 1.0 | 0.00 | 0.00 | 0.00 | 89 | 1011.8 |
| 20260903224525 | 81 | 360 | 0.0 | 0.0 | 0.00 | 0.00 | 0.00 | 89 | 1012.2 |